This is the latest recevied weather packets stored in our database for station/object DM4SB-13. If no packets are shown the sender has not sent any weather packets the latest 10 day(s).
| Time | Temp. | Humidity | Pressure | Rain* | Wind** | Luminosity | Snow |
|---|---|---|---|---|---|---|---|
| 1777665018 | 18.33° C | 36% | 1025.5 hPa | - | - | - | - |
| 1777663818 | 18.89° C | 35% | 1025.1 hPa | - | - | - | - |
| 1777661418 | 20° C | 32% | 1024.6 hPa | - | - | - | - |
| 1777660818 | 20.56° C | 31% | 1024.4 hPa | - | - | - | - |
| 1777659018 | 21.11° C | 29% | 1024.2 hPa | - | - | - | - |
| 1777656618 | 22.78° C | 28% | 1023.9 hPa | - | - | - | - |
| 1777654818 | 23.33° C | 26% | 1023.7 hPa | - | - | - | - |
| 1777653618 | 23.89° C | 26% | 1023.9 hPa | - | - | - | - |
| 1777653018 | 24.44° C | 25% | 1024 hPa | - | - | - | - |
| 1777650617 | 26.11° C | 23% | 1024 hPa | - | - | - | - |
| 1777650018 | 26.67° C | 23% | 1024.1 hPa | - | - | - | - |
| 1777649418 | 27.78° C | 22% | 1024.3 hPa | - | - | - | - |
| 1777648818 | 28.33° C | 21% | 1024.3 hPa | - | - | - | - |
| 1777648217 | 30.56° C | 20% | 1024.4 hPa | - | - | - | - |
| 1777647018 | 37.78° C | 17% | 1024.4 hPa | - | - | - | - |
| 1777646418 | 38.33° C | 17% | 1024.6 hPa | - | - | - | - |
| 1777645818 | 38.89° C | 16% | 1024.7 hPa | - | - | - | - |
| 1777645217 | 38.89° C | 17% | 1024.7 hPa | - | - | - | - |
| 1777644617 | 37.78° C | 18% | 1024.8 hPa | - | - | - | - |
| 1777643418 | 34.44° C | 19% | 1025 hPa | - | - | - | - |
| 1777642818 | 30° C | 23% | 1025 hPa | - | - | - | - |
| 1777642217 | 19.44° C | 33% | 1025.2 hPa | - | - | - | - |
| 1777641617 | 17.78° C | 36% | 1025.2 hPa | - | - | - | - |
| 1777641018 | 16.67° C | 36% | 1025.3 hPa | - | - | - | - |
| 1777638618 | 15.56° C | 36% | 1026 hPa | - | - | - | - |
* Rain since midnight (hover to see other rain measurements)
** Current wind speed in m/s (hover to see current wind gust speed)